Time,TemperatureF,DewpointF,PressureIn,WindDirection,WindDirectionDegrees,WindSpeedMPH,WindSpeedGustMPH,Humidity,HourlyPrecipIn,Conditions,Clouds,dailyrainin,SoftwareType,DateUTC
2013-06-30 00:03:00,68.6,66.5,29.69,West,273,1.0,17.0,93,0.00,BKN,,0.00,WeatherDisplay:10.37,2013-06-30 04:03:00,
2013-06-30 00:13:00,68.7,66.3,29.69,WNW,282,1.0,6.0,92,0.00,BKN,,0.00,WeatherDisplay:10.37,2013-06-30 04:13:00,
2013-06-30 00:23:00,68.9,66.5,29.69,WNW,285,1.0,3.0,92,0.00,BKN,,0.00,WeatherDisplay:10.37,2013-06-30 04:23:00,
2013-06-30 00:33:00,68.9,66.5,29.69,WNW,284,0.0,4.0,92,0.00,BKN,,0.00,WeatherDisplay:10.37,2013-06-30 04:33:00,
2013-06-30 00:43:00,68.9,66.5,29.69,West,260,0.0,5.0,92,0.00,BKN,,0.00,WeatherDisplay:10.37,2013-06-30 04:43:00,
2013-06-30 00:53:00,68.9,66.5,29.69,West,269,0.0,4.0,92,0.00,BKN,,0.00,WeatherDisplay:10.37,2013-06-30 04:53:00,
2013-06-30 01:03:00,68.9,66.5,29.70,WSW,247,0.0,4.0,92,0.00,BKN,,0.00,WeatherDisplay:10.37,2013-06-30 05:03:00,
2013-06-30 01:13:00,68.9,66.5,29.70,WSW,241,0.0,2.0,92,0.00,BKN,,0.00,WeatherDisplay:10.37,2013-06-30 05:13:00,
2013-06-30 01:23:00,68.7,66.3,29.69,West,260,0.0,4.0,92,0.00,OVC,,0.00,WeatherDisplay:10.37,2013-06-30 05:23:00,
2013-06-30 01:33:00,68.4,66.3,29.69,WNW,284,0.0,0.0,93,0.00,OVC,,0.00,WeatherDisplay:10.37,2013-06-30 05:33:00,
2013-06-30 01:43:00,68.1,66.3,29.69,WNW,293,0.0,0.0,94,0.00,OVC,,0.00,WeatherDisplay:10.37,2013-06-30 05:43:00,
2013-06-30 01:53:00,67.9,66.1,29.69,West,266,0.0,0.0,94,0.00,OVC,,0.00,WeatherDisplay:10.37,2013-06-30 05:53:00,
2013-06-30 02:03:00,67.9,66.4,29.70,West,266,0.0,0.0,95,0.00,BKN,,0.00,WeatherDisplay:10.37,2013-06-30 06:03:00,
2013-06-30 02:13:00,68.1,66.6,29.70,WSW,257,0.0,0.0,95,0.00,BKN,,0.00,WeatherDisplay:10.37,2013-06-30 06:13:00,
2013-06-30 02:23:00,68.1,66.6,29.70,SW,233,0.0,1.0,95,0.00,BKN,,0.00,WeatherDisplay:10.37,2013-06-30 06:23:00,
2013-06-30 02:33:00,68.2,66.7,29.70,SW,231,0.0,1.0,95,0.00,BKN,,0.00,WeatherDisplay:10.37,2013-06-30 06:33:00,
2013-06-30 02:43:00,68.2,66.7,29.70,WSW,256,0.0,5.0,95,0.00,BKN,,0.00,WeatherDisplay:10.37,2013-06-30 06:43:00,
2013-06-30 02:53:00,68.2,67.0,29.70,SSW,213,0.0,5.0,96,0.00,BKN,,0.00,WeatherDisplay:10.37,2013-06-30 06:53:00,
2013-06-30 03:03:00,68.2,66.7,29.71,SW,219,0.0,3.0,95,0.00,BKN,,0.00,WeatherDisplay:10.37,2013-06-30 07:03:00,
2013-06-30 03:13:00,68.1,66.9,29.71,WSW,239,0.0,2.0,96,0.00,OVC,,0.00,WeatherDisplay:10.37,2013-06-30 07:13:00,
2013-06-30 03:23:00,68.1,66.9,29.71,West,270,0.0,2.0,96,0.00,OVC,,0.00,WeatherDisplay:10.37,2013-06-30 07:23:00,
2013-06-30 03:33:00,68.2,67.0,29.71,West,260,0.0,4.0,96,0.00,OVC,,0.00,WeatherDisplay:10.37,2013-06-30 07:33:00,
2013-06-30 03:43:00,68.2,67.0,29.71,WSW,251,0.0,2.0,96,0.00,OVC,,0.00,WeatherDisplay:10.37,2013-06-30 07:43:00,
2013-06-30 03:53:00,68.2,67.0,29.71,WSW,241,0.0,2.0,96,0.00,OVC,,0.00,WeatherDisplay:10.37,2013-06-30 07:53:00,
2013-06-30 04:03:00,68.1,66.9,29.71,SW,225,0.0,1.0,96,0.00,OVC,,0.00,WeatherDisplay:10.37,2013-06-30 08:03:00,
2013-06-30 04:13:00,68.1,66.9,29.71,SW,228,0.0,1.0,96,0.00,OVC,,0.00,WeatherDisplay:10.37,2013-06-30 08:13:00,
2013-06-30 04:23:00,68.1,67.2,29.71,WSW,242,0.0,2.0,97,0.00,OVC,,0.00,WeatherDisplay:10.37,2013-06-30 08:23:00,
2013-06-30 04:33:00,68.1,67.2,29.72,WNW,282,0.0,0.0,97,0.00,OVC,,0.00,WeatherDisplay:10.37,2013-06-30 08:33:00,
2013-06-30 04:43:00,68.2,67.3,29.72,West,269,0.0,3.0,97,0.00,OVC,,0.00,WeatherDisplay:10.37,2013-06-30 08:43:00,
2013-06-30 04:53:00,68.2,67.0,29.72,West,275,0.0,2.0,96,0.00,OVC,,0.00,WeatherDisplay:10.37,2013-06-30 08:53:00,
2013-06-30 05:03:00,68.2,67.0,29.72,SW,229,0.0,3.0,96,0.00,OVC,,0.00,WeatherDisplay:10.37,2013-06-30 09:03:00,
2013-06-30 05:13:00,68.1,66.9,29.72,WNW,294,0.0,1.0,96,0.00,OVC,,0.00,WeatherDisplay:10.37,2013-06-30 09:13:00,
2013-06-30 05:23:00,68.1,66.9,29.73,SW,227,0.0,3.0,96,0.00,OVC,,0.00,WeatherDisplay:10.37,2013-06-30 09:23:00,
2013-06-30 05:33:00,67.9,66.7,29.74,WSW,248,0.0,3.0,96,0.00,OVC,,0.00,WeatherDisplay:10.37,2013-06-30 09:33:00,
2013-06-30 05:43:00,67.9,67.1,29.74,WNW,298,0.0,2.0,97,0.00,OVC,,0.00,WeatherDisplay:10.37,2013-06-30 09:43:00,
2013-06-30 05:53:00,68.1,67.2,29.74,WNW,299,0.0,2.0,97,0.00,OVC,,0.00,WeatherDisplay:10.37,2013-06-30 09:53:00,
2013-06-30 06:03:00,68.1,67.2,29.75,WNW,284,0.0,2.0,97,0.00,OVC,,0.00,WeatherDisplay:10.37,2013-06-30 10:03:00,
2013-06-30 06:13:00,68.1,67.2,29.75,WSW,257,0.0,1.0,97,0.00,OVC,,0.00,WeatherDisplay:10.37,2013-06-30 10:13:00,
2013-06-30 06:23:00,68.2,67.3,29.75,West,280,0.0,2.0,97,0.00,OVC,,0.00,WeatherDisplay:10.37,2013-06-30 10:23:00,
2013-06-30 06:33:00,68.4,67.5,29.76,WSW,238,0.0,3.0,97,0.00,OVC,,0.00,WeatherDisplay:10.37,2013-06-30 10:33:00,
2013-06-30 06:43:00,68.6,67.4,29.76,SSW,211,0.0,0.0,96,0.00,BKN,,0.00,WeatherDisplay:10.37,2013-06-30 10:43:00,
2013-06-30 06:53:00,69.1,67.9,29.77,SW,229,0.0,4.0,96,0.00,BKN,,0.00,WeatherDisplay:10.37,2013-06-30 10:53:00,
2013-06-30 07:03:00,69.4,68.2,29.77,SSW,213,1.0,5.0,96,0.00,BKN,,0.00,WeatherDisplay:10.37,2013-06-30 11:03:00,
2013-06-30 07:13:00,69.7,67.9,29.77,SW,228,0.0,4.0,94,0.00,BKN,,0.00,WeatherDisplay:10.37,2013-06-30 11:13:00,
2013-06-30 07:23:00,70.4,68.2,29.78,SW,222,0.0,4.0,93,0.00,SCT,,0.00,WeatherDisplay:10.37,2013-06-30 11:23:00,
2013-06-30 07:33:00,71.0,68.2,29.78,SW,216,1.0,6.0,91,0.00,SCT,,0.00,WeatherDisplay:10.37,2013-06-30 11:33:00,
2013-06-30 07:43:00,72.1,68.3,29.78,SSW,207,0.0,6.0,88,0.00,SCT,,0.00,WeatherDisplay:10.37,2013-06-30 11:43:00,
2013-06-30 07:53:00,73.2,68.4,29.79,SSW,210,1.0,6.0,85,0.00,SCT,,0.00,WeatherDisplay:10.37,2013-06-30 11:53:00,
2013-06-30 08:03:00,73.5,68.4,29.79,SW,235,1.0,7.0,84,0.00,SCT,,0.00,WeatherDisplay:10.37,2013-06-30 12:03:00,
2013-06-30 08:13:00,73.5,68.7,29.79,SSW,212,1.0,6.0,85,0.00,CLR,,0.00,WeatherDisplay:10.37,2013-06-30 12:13:00,
2013-06-30 08:23:00,73.5,68.7,29.80,SW,218,1.0,5.0,85,0.00,CLR,,0.00,WeatherDisplay:10.37,2013-06-30 12:23:00,
2013-06-30 08:33:00,73.7,68.9,29.80,WSW,246,0.0,4.0,85,0.00,CLR,,0.00,WeatherDisplay:10.37,2013-06-30 12:33:00,
2013-06-30 08:43:00,73.7,68.6,29.80,WSW,238,1.0,3.0,84,0.00,CLR,,0.00,WeatherDisplay:10.37,2013-06-30 12:43:00,
2013-06-30 08:53:00,74.4,69.2,29.80,WNW,286,1.0,6.0,84,0.00,CLR,,0.00,WeatherDisplay:10.37,2013-06-30 12:53:00,
2013-06-30 09:03:00,74.9,69.0,29.80,SW,228,1.0,7.0,82,0.00,CLR,,0.00,WeatherDisplay:10.37,2013-06-30 13:03:00,
2013-06-30 09:13:00,75.5,68.9,29.80,SW,235,1.0,6.0,80,0.00,CLR,,0.00,WeatherDisplay:10.37,2013-06-30 13:13:00,
2013-06-30 09:23:00,76.2,69.6,29.80,SW,215,2.0,5.0,80,0.00,CLR,,0.00,WeatherDisplay:10.37,2013-06-30 13:23:00,
2013-06-30 09:33:00,77.4,69.2,29.80,South,183,1.0,6.0,76,0.00,CLR,,0.00,WeatherDisplay:10.37,2013-06-30 13:33:00,
2013-06-30 09:43:00,78.4,70.2,29.80,South,179,1.0,6.0,76,0.00,CLR,,0.00,WeatherDisplay:10.37,2013-06-30 13:43:00,
2013-06-30 09:53:00,78.7,69.3,29.80,SSE,163,1.0,10.0,73,0.00,CLR,,0.00,WeatherDisplay:10.37,2013-06-30 13:53:00,
2013-06-30 10:03:00,78.7,69.3,29.80,SSW,202,0.0,10.0,73,0.00,CLR,,0.00,WeatherDisplay:10.37,2013-06-30 14:03:00,
2013-06-30 10:13:00,78.9,69.1,29.80,South,177,2.0,10.0,72,0.00,CLR,,0.00,WeatherDisplay:10.37,2013-06-30 14:13:00,
2013-06-30 10:23:00,79.1,69.7,29.79,South,180,2.0,10.0,73,0.00,CLR,,0.00,WeatherDisplay:10.37,2013-06-30 14:23:00,
2013-06-30 10:33:00,79.3,69.5,29.80,SW,220,1.0,10.0,72,0.00,CLR,,0.00,WeatherDisplay:10.37,2013-06-30 14:33:00,
2013-06-30 10:43:00,79.2,70.2,29.80,West,263,1.0,10.0,74,0.00,CLR,,0.00,WeatherDisplay:10.37,2013-06-30 14:43:00,
2013-06-30 10:53:00,79.4,69.6,29.80,WSW,244,1.0,10.0,72,0.00,CLR,,0.00,WeatherDisplay:10.37,2013-06-30 14:53:00,
2013-06-30 11:03:00,80.4,69.7,29.81,SW,233,2.0,10.0,70,0.00,CLR,,0.00,WeatherDisplay:10.37,2013-06-30 15:03:00,
2013-06-30 11:13:00,80.6,69.5,29.81,SSW,213,2.0,10.0,69,0.00,CLR,,0.00,WeatherDisplay:10.37,2013-06-30 15:13:00,
2013-06-30 11:23:00,81.2,69.7,29.81,South,189,2.0,10.0,68,0.00,CLR,,0.00,WeatherDisplay:10.37,2013-06-30 15:23:00,
2013-06-30 11:33:00,81.8,70.2,29.81,SSW,201,3.0,10.0,68,0.00,CLR,,0.00,WeatherDisplay:10.37,2013-06-30 15:33:00,
2013-06-30 11:43:00,82.2,71.4,29.81,SSW,212,1.0,10.0,70,0.00,CLR,,0.00,WeatherDisplay:10.37,2013-06-30 15:43:00,
2013-06-30 11:53:00,82.4,72.5,29.80,SW,228,2.0,10.0,72,0.00,CLR,,0.00,WeatherDisplay:10.37,2013-06-30 15:53:00,
2013-06-30 12:03:00,81.8,69.8,29.80,WSW,243,2.0,10.0,67,0.00,CLR,,0.00,WeatherDisplay:10.37,2013-06-30 16:03:00,
2013-06-30 12:13:00,82.2,69.3,29.80,SW,224,1.0,10.0,65,0.00,CLR,,0.00,WeatherDisplay:10.37,2013-06-30 16:13:00,
2013-06-30 12:23:00,82.2,69.7,29.80,SW,215,1.0,13.0,66,0.00,SCT,,0.00,WeatherDisplay:10.37,2013-06-30 16:23:00,
2013-06-30 12:33:00,82.4,70.3,29.80,South,188,3.0,7.0,67,0.00,SCT,,0.00,WeatherDisplay:10.37,2013-06-30 16:33:00,
2013-06-30 12:43:00,82.9,70.3,29.80,SSW,201,3.0,12.0,66,0.00,SCT,,0.00,WeatherDisplay:10.37,2013-06-30 16:43:00,
2013-06-30 12:53:00,82.9,71.3,29.80,South,184,3.0,9.0,68,0.00,SCT,,0.00,WeatherDisplay:10.37,2013-06-30 16:53:00,
2013-06-30 13:03:00,83.3,71.6,29.81,SW,234,3.0,12.0,68,0.00,SCT,,0.00,WeatherDisplay:10.37,2013-06-30 17:03:00,
2013-06-30 13:13:00,83.9,72.2,29.81,SSW,198,3.0,10.0,68,0.00,FEW,,0.00,WeatherDisplay:10.37,2013-06-30 17:13:00,
2013-06-30 13:23:00,84.1,71.1,29.80,South,186,2.0,10.0,65,0.00,FEW,,0.00,WeatherDisplay:10.37,2013-06-30 17:23:00,
2013-06-30 13:33:00,84.1,71.1,29.80,SW,226,2.0,10.0,65,0.00,FEW,,0.00,WeatherDisplay:10.37,2013-06-30 17:33:00,
2013-06-30 13:43:00,83.8,70.3,29.80,SW,234,1.0,8.0,64,0.00,FEW,,0.00,WeatherDisplay:10.37,2013-06-30 17:43:00,
2013-06-30 13:53:00,82.9,69.5,29.80,SSW,208,3.0,10.0,64,0.00,FEW,,0.00,WeatherDisplay:10.37,2013-06-30 17:53:00,
2013-06-30 14:03:00,83.5,70.5,29.80,South,175,3.0,12.0,65,0.00,FEW,,0.00,WeatherDisplay:10.37,2013-06-30 18:03:00,
2013-06-30 14:13:00,82.9,69.9,29.80,SSW,204,2.0,14.0,65,0.00,FEW,,0.00,WeatherDisplay:10.37,2013-06-30 18:13:00,
2013-06-30 14:23:00,82.8,70.7,29.80,SSW,210,2.0,9.0,67,0.00,FEW,,0.00,WeatherDisplay:10.37,2013-06-30 18:23:00,
2013-06-30 14:33:00,82.6,71.0,29.80,SSW,201,3.0,12.0,68,0.00,FEW,,0.00,WeatherDisplay:10.37,2013-06-30 18:33:00,
2013-06-30 14:43:00,82.8,70.7,29.80,South,186,3.0,9.0,67,0.00,FEW,,0.00,WeatherDisplay:10.37,2013-06-30 18:43:00,
2013-06-30 14:53:00,82.8,71.2,29.81,SSW,204,3.0,14.0,68,0.00,FEW,,0.00,WeatherDisplay:10.37,2013-06-30 18:53:00,
2013-06-30 15:03:00,82.8,70.3,29.81,WSW,238,3.0,12.0,66,0.00,FEW,,0.00,WeatherDisplay:10.37,2013-06-30 19:03:00,
2013-06-30 15:13:00,82.2,71.4,29.81,SW,225,3.0,12.0,70,0.00,SCT,,0.00,WeatherDisplay:10.37,2013-06-30 19:13:00,
2013-06-30 15:23:00,81.8,71.1,29.81,SW,216,3.0,10.0,70,0.00,SCT,,0.00,WeatherDisplay:10.37,2013-06-30 19:23:00,
2013-06-30 15:33:00,81.0,71.1,29.80,SSW,202,2.0,10.0,72,0.00,SCT,,0.00,WeatherDisplay:10.37,2013-06-30 19:33:00,
2013-06-30 15:43:00,80.4,70.5,29.80,SSW,205,1.0,10.0,72,0.00,SCT,,0.00,WeatherDisplay:10.37,2013-06-30 19:43:00,
2013-06-30 15:53:00,80.2,70.4,29.81,SSW,200,2.0,12.0,72,0.00,SCT,,0.00,WeatherDisplay:10.37,2013-06-30 19:53:00,
2013-06-30 16:03:00,80.0,69.7,29.81,SSW,194,5.0,12.0,71,0.00,FEW,,0.00,WeatherDisplay:10.37,2013-06-30 20:03:00,
2013-06-30 16:13:00,78.9,69.5,29.81,SW,224,2.0,13.0,73,0.00,FEW,,0.00,WeatherDisplay:10.37,2013-06-30 20:13:00,
2013-06-30 16:23:00,78.4,69.0,29.82,SSW,194,5.0,13.0,73,0.00,FEW,,0.00,WeatherDisplay:10.37,2013-06-30 20:23:00,
2013-06-30 16:33:00,78.2,70.0,29.82,SW,224,1.0,12.0,76,0.00,FEW,,0.00,WeatherDisplay:10.37,2013-06-30 20:33:00,
2013-06-30 16:43:00,78.2,69.6,29.82,SW,229,2.0,12.0,75,0.00,FEW,,0.00,WeatherDisplay:10.37,2013-06-30 20:43:00,
2013-06-30 16:53:00,78.1,70.3,29.82,SSW,209,1.0,8.0,77,0.00,FEW,,0.00,WeatherDisplay:10.37,2013-06-30 20:53:00,
2013-06-30 17:03:00,78.0,70.2,29.83,SW,215,3.0,10.0,77,0.00,FEW,,0.00,WeatherDisplay:10.37,2013-06-30 21:03:00,
2013-06-30 17:13:00,78.0,70.2,29.83,SSW,200,1.0,5.0,77,0.00,CLR,,0.00,WeatherDisplay:10.37,2013-06-30 21:13:00,
2013-06-30 17:23:00,78.6,70.8,29.83,SSW,206,6.0,15.0,77,0.00,CLR,,0.00,WeatherDisplay:10.37,2013-06-30 21:23:00,
2013-06-30 17:33:00,78.4,70.6,29.83,SSW,199,2.0,15.0,77,0.00,BKN,,0.00,WeatherDisplay:10.37,2013-06-30 21:33:00,
2013-06-30 17:43:00,77.4,70.4,29.83,SW,216,2.0,15.0,79,0.00,BKN,,0.00,WeatherDisplay:10.37,2013-06-30 21:43:00,
2013-06-30 17:53:00,77.3,70.3,29.83,SW,218,2.0,15.0,79,0.00,BKN,,0.00,WeatherDisplay:10.37,2013-06-30 21:53:00,
2013-06-30 18:03:00,77.3,70.6,29.84,SSW,198,1.0,15.0,80,0.00,BKN,,0.00,WeatherDisplay:10.37,2013-06-30 22:03:00,
2013-06-30 18:13:00,76.9,70.3,29.84,SW,228,1.0,15.0,80,0.00,BKN,,0.00,WeatherDisplay:10.37,2013-06-30 22:13:00,
2013-06-30 18:23:00,76.5,70.2,29.84,SSW,209,2.0,15.0,81,0.00,BKN,,0.00,WeatherDisplay:10.37,2013-06-30 22:23:00,
2013-06-30 18:33:00,76.5,69.9,29.85,SW,222,2.0,15.0,80,0.00,BKN,,0.00,WeatherDisplay:10.37,2013-06-30 22:33:00,
2013-06-30 18:43:00,76.4,70.1,29.85,SSW,209,2.0,15.0,81,0.00,BKN,,0.00,WeatherDisplay:10.37,2013-06-30 22:43:00,
2013-06-30 18:53:00,76.0,70.1,29.85,SSW,209,0.0,15.0,82,0.00,BKN,,0.00,WeatherDisplay:10.37,2013-06-30 22:53:00,
2013-06-30 19:03:00,75.5,69.7,29.86,SSW,201,1.0,15.0,82,0.00,BKN,,0.00,WeatherDisplay:10.37,2013-06-30 23:03:00,
2013-06-30 19:13:00,74.9,69.4,29.86,SSW,196,0.0,15.0,83,0.00,BKN,,0.00,WeatherDisplay:10.37,2013-06-30 23:13:00,
2013-06-30 19:23:00,74.4,69.3,29.86,South,191,2.0,15.0,84,0.00,BKN,,0.00,WeatherDisplay:10.37,2013-06-30 23:23:00,
2013-06-30 19:33:00,74.1,69.3,29.86,SSW,204,1.0,15.0,85,0.00,BKN,,0.00,WeatherDisplay:10.37,2013-06-30 23:33:00,
2013-06-30 19:43:00,73.9,69.1,29.86,SW,221,0.0,15.0,85,0.00,FEW,,0.00,WeatherDisplay:10.37,2013-06-30 23:43:00,
2013-06-30 19:53:00,73.5,68.7,29.87,South,184,1.0,15.0,85,0.00,FEW,,0.00,WeatherDisplay:10.37,2013-06-30 23:53:00,
2013-06-30 20:03:00,73.2,68.8,29.87,SSW,200,1.0,15.0,86,0.00,BKN,,0.00,WeatherDisplay:10.37,2013-07-01 00:03:00,
2013-06-30 20:13:00,72.7,68.6,29.87,SSW,201,1.0,15.0,87,0.00,BKN,,0.00,WeatherDisplay:10.37,2013-07-01 00:13:00,
2013-06-30 20:23:00,72.3,68.5,29.87,SSW,196,1.0,15.0,88,0.00,OVC,,0.00,WeatherDisplay:10.37,2013-07-01 00:23:00,
2013-06-30 20:33:00,72.0,68.6,29.87,SW,220,0.0,15.0,89,0.00,OVC,,0.00,WeatherDisplay:10.37,2013-07-01 00:33:00,
2013-06-30 20:43:00,71.6,68.2,29.87,SSW,199,0.0,15.0,89,0.00,OVC,,0.00,WeatherDisplay:10.37,2013-07-01 00:43:00,
2013-06-30 20:53:00,71.4,68.3,29.88,SW,234,2.0,15.0,90,0.00,OVC,,0.00,WeatherDisplay:10.37,2013-07-01 00:53:00,
2013-06-30 21:03:00,71.1,68.0,29.88,SSW,208,1.0,4.0,90,0.00,OVC,,0.00,WeatherDisplay:10.37,2013-07-01 01:03:00,
2013-06-30 21:13:00,71.1,68.3,29.88,South,186,0.0,15.0,91,0.00,OVC,,0.00,WeatherDisplay:10.37,2013-07-01 01:13:00,
2013-06-30 21:23:00,71.1,68.3,29.89,SSW,192,0.0,15.0,91,0.00,OVC,,0.00,WeatherDisplay:10.37,2013-07-01 01:23:00,
2013-06-30 21:33:00,70.9,68.1,29.89,SSW,199,0.0,15.0,91,0.00,OVC,,0.00,WeatherDisplay:10.37,2013-07-01 01:33:00,
2013-06-30 21:43:00,70.9,68.5,29.89,SSW,197,0.0,15.0,92,0.00,OVC,,0.00,WeatherDisplay:10.37,2013-07-01 01:43:00,
2013-06-30 21:53:00,70.8,68.4,29.89,South,175,1.0,15.0,92,0.00,OVC,,0.00,WeatherDisplay:10.37,2013-07-01 01:53:00,
2013-06-30 22:03:00,70.8,68.4,29.89,SSW,194,0.0,15.0,92,0.00,OVC,,0.00,WeatherDisplay:10.37,2013-07-01 02:03:00,
2013-06-30 22:13:00,70.8,68.4,29.89,South,185,0.0,15.0,92,0.00,OVC,,0.00,WeatherDisplay:10.37,2013-07-01 02:13:00,
2013-06-30 22:23:00,70.8,68.4,29.89,SSW,201,0.0,15.0,92,0.00,OVC,,0.00,WeatherDisplay:10.37,2013-07-01 02:23:00,
2013-06-30 22:33:00,70.6,68.2,29.89,SW,226,0.0,15.0,92,0.00,OVC,,0.00,WeatherDisplay:10.37,2013-07-01 02:33:00,
2013-06-30 22:43:00,70.6,68.5,29.89,SW,227,1.0,15.0,93,0.00,OVC,,0.00,WeatherDisplay:10.37,2013-07-01 02:43:00,
2013-06-30 22:53:00,70.6,68.5,29.89,SSW,208,1.0,15.0,93,0.00,OVC,,0.00,WeatherDisplay:10.37,2013-07-01 02:53:00,
2013-06-30 23:03:00,70.4,68.3,29.89,WSW,246,0.0,2.0,93,0.00,OVC,,0.00,WeatherDisplay:10.37,2013-07-01 03:03:00,
2013-06-30 23:13:00,70.4,68.6,29.89,WSW,251,0.0,15.0,94,0.00,OVC,,0.00,WeatherDisplay:10.37,2013-07-01 03:13:00,
2013-06-30 23:23:00,70.4,68.6,29.90,SW,221,0.0,15.0,94,0.00,OVC,,0.00,WeatherDisplay:10.37,2013-07-01 03:23:00,
2013-06-30 23:33:00,70.3,68.5,29.90,WSW,248,0.0,15.0,94,0.00,OVC,,0.00,WeatherDisplay:10.37,2013-07-01 03:33:00,
2013-06-30 23:43:00,70.3,68.5,29.90,WSW,247,0.0,15.0,94,0.00,OVC,,0.00,WeatherDisplay:10.37,2013-07-01 03:43:00,
2013-06-30 23:53:00,70.3,68.5,29.90,WSW,247,0.0,15.0,94,0.00,OVC,,0.00,WeatherDisplay:10.37,2013-07-01 03:53:00,